Early, TX

12:46 PM CST on February 23, 2017 (GMT -0600)
Brownwood Regional

Weather History for KBWD - May, 2013

Change the Weather History Date:

Monday, May 6, 2013

  Actual Average (KABI) Record (KABI)
Temperature  
Mean Temperature 55 °F -  
Max Temperature 69 °F 82 °F 106 °F (2000)
Min Temperature 41 °F 57 °F 41 °F (1999)
Degree Days  
Heating Degree Days 10    
Growing Degree Days 5 (Base 50)    
Moisture  
Dew Point 45 °F    
Average Humidity 70    
Maximum Humidity 100    
Minimum Humidity 35    
Precipitation  
Precipitation 0.03 in - - ()
Sea Level Pressure  
Sea Level Pressure 30.10 in    
Wind  
Wind Speed 2 mph (SSW)    
Max Wind Speed 10 mph    
Max Gust Speed -    
Visibility 9 miles    
Events Rain    
Averages and records for this station are not official NWS values.
T = Trace of Precipitation, MM = Missing Value Source: NWS Daily Summary

Daily Weather History Graph

Daily Weather History Graph

Search for Another Location

Airport or City:

Trip Planner

Search our weather history database for the weather conditions in past years. The results will help you decide how hot, cold, wet, or windy it might be!

Date:

Astronomy

May. 06, 2013 Rise Set
Actual Time 6:45 AM CDT 8:19 PM CDT
Civil Twilight 6:19 AM CDT 8:46 PM CDT
Nautical Twilight 5:47 AM CDT 9:17 PM CDT
Astronomical Twilight 5:14 AM CDT 9:50 PM CDT
Moon 4:36 AM CDT (5/6) 5:30 PM CDT (5/6)
Length of Visible Light 14h 26m
Length of Day
13h 34m
Waning Crescent, 11% of the Moon is Illuminated
May 6
Waning Crescent
May 9
New
May 17
First Quarter
May 24
Full
May 31
Last Quarter

Hourly Weather History & Observations

Time (CDT) Temp. Dew Point Humidity Pressure Visibility Wind Dir Wind Speed Gust Speed Precip Events Conditions
12:15 AM 53.6 °F 41.0 °F 62% 30.11 in 10.0 mi Calm Calm - N/A   Clear
12:35 AM 50.0 °F 39.2 °F 66% 30.11 in 10.0 mi Calm Calm - N/A   Clear
12:55 AM 51.8 °F 41.0 °F 67% 30.11 in 10.0 mi Calm Calm - N/A   Clear
1:15 AM 50.0 °F 39.2 °F 66% 30.11 in 10.0 mi NNW 4.6 mph - N/A   Clear
1:35 AM 48.2 °F 39.2 °F 71% 30.11 in 10.0 mi Calm Calm - N/A   Clear
1:55 AM 48.2 °F 41.0 °F 76% 30.10 in 10.0 mi Calm Calm - N/A   Clear
2:15 AM 46.4 °F 39.2 °F 76% 30.10 in 10.0 mi Calm Calm - N/A   Partly Cloudy
2:35 AM 46.4 °F 37.4 °F 71% 30.10 in 10.0 mi Calm Calm - N/A   Clear
2:55 AM 46.4 °F 39.2 °F 76% 30.09 in 10.0 mi Calm Calm - N/A   Clear
3:15 AM 46.4 °F 41.0 °F 81% 30.09 in 10.0 mi Calm Calm - N/A   Clear
3:35 AM 46.4 °F 39.2 °F 76% 30.09 in 10.0 mi Calm Calm - N/A   Clear
3:55 AM 46.4 °F 39.2 °F 76% 30.09 in 10.0 mi Calm Calm - N/A   Clear
4:15 AM 44.6 °F 39.2 °F 81% 30.10 in 10.0 mi Calm Calm - N/A   Clear
4:35 AM 44.6 °F 39.2 °F 81% 30.09 in 10.0 mi Calm Calm - N/A   Clear
4:55 AM 44.6 °F 39.2 °F 81% 30.09 in 10.0 mi Calm Calm - N/A   Clear
5:15 AM 44.6 °F 39.2 °F 81% 30.10 in 10.0 mi Calm Calm - N/A   Clear
5:55 AM 44.6 °F 39.2 °F 81% 30.10 in 10.0 mi Calm Calm - N/A   Clear
6:15 AM 44.6 °F 39.2 °F 81% 30.11 in 10.0 mi Calm Calm - N/A   Clear
6:35 AM 42.8 °F 37.4 °F 81% 30.11 in 10.0 mi Calm Calm - N/A   Clear
6:55 AM 41.0 °F 37.4 °F 87% 30.12 in 10.0 mi Calm Calm - N/A   Clear
7:15 AM 44.6 °F 39.2 °F 81% 30.12 in 10.0 mi Calm Calm - N/A   Clear
7:35 AM 44.6 °F 39.2 °F 81% 30.13 in 10.0 mi Calm Calm - N/A   Clear
7:55 AM 46.4 °F 41.0 °F 81% 30.13 in 10.0 mi Calm Calm - N/A   Clear
8:15 AM 51.8 °F 44.6 °F 76% 30.13 in 10.0 mi NE 3.5 mph - N/A   Clear
8:35 AM 55.4 °F 44.6 °F 67% 30.15 in 10.0 mi Calm Calm - N/A   Clear
8:55 AM 59.0 °F 44.6 °F 59% 30.15 in 10.0 mi Calm Calm - N/A   Clear
9:15 AM 60.8 °F 42.8 °F 52% 30.15 in 10.0 mi South 5.8 mph - N/A   Clear
9:35 AM 62.6 °F 42.8 °F 48% 30.15 in 10.0 mi SSE 4.6 mph - N/A   Clear
9:55 AM 64.4 °F 42.8 °F 45% 30.15 in 10.0 mi South 8.1 mph - N/A   Clear
10:15 AM 64.4 °F 42.8 °F 45% 30.15 in 10.0 mi SSE 8.1 mph - N/A   Clear
10:35 AM 66.2 °F 44.6 °F 46% 30.14 in 10.0 mi SSE 5.8 mph - N/A   Clear
10:55 AM 68.0 °F 44.6 °F 43% 30.13 in 10.0 mi SE 6.9 mph - N/A   Clear
11:15 AM 68.0 °F 42.8 °F 40% 30.13 in 10.0 mi SE 6.9 mph - N/A   Clear
11:35 AM 68.0 °F 42.8 °F 40% 30.13 in 10.0 mi SE 8.1 mph - N/A   Clear
11:55 AM 69.8 °F 44.6 °F 40% 30.13 in 10.0 mi South 8.1 mph - N/A   Clear
12:15 PM 69.8 °F 44.6 °F 40% 30.13 in 10.0 mi SSE 6.9 mph - N/A   Clear
12:35 PM 68.0 °F 42.8 °F 40% 30.12 in 10.0 mi Calm Calm - N/A   Clear
12:55 PM 69.8 °F 41.0 °F 35% 30.12 in 10.0 mi SSE 3.5 mph - N/A   Clear
1:15 PM 69.8 °F 42.8 °F 38% 30.11 in 10.0 mi South 6.9 mph - N/A   Clear
1:35 PM 69.8 °F 42.8 °F 38% 30.10 in 10.0 mi West 3.5 mph - N/A   Clear
1:55 PM 69.8 °F 42.8 °F 38% 30.10 in 10.0 mi Calm Calm - N/A   Clear
2:15 PM 68.0 °F 42.8 °F 40% 30.10 in 10.0 mi SW 3.5 mph - N/A   Clear
2:35 PM 69.8 °F 42.8 °F 38% 30.11 in 10.0 mi SSW 6.9 mph - N/A   Clear
2:55 PM 68.0 °F 44.6 °F 43% 30.11 in 10.0 mi South 6.9 mph - N/A   Clear
3:15 PM 68.0 °F 44.6 °F 43% 30.10 in 10.0 mi SW 6.9 mph - N/A   Clear
3:35 PM 68.0 °F 44.6 °F 43% 30.10 in 10.0 mi SSW 5.8 mph - N/A   Clear
3:55 PM 68.0 °F 44.6 °F 43% 30.10 in 10.0 mi WSW 9.2 mph - N/A   Clear
4:15 PM 66.2 °F 46.4 °F 49% 30.09 in 10.0 mi WSW 10.4 mph - N/A   Scattered Clouds
4:35 PM 62.6 °F 51.8 °F 68% 30.07 in 9.0 mi West 3.5 mph - N/A Rain Light Rain
4:55 PM 60.8 °F 53.6 °F 77% 30.06 in 5.0 mi Calm Calm - 0.02 in Rain Light Rain
5:15 PM 60.8 °F 55.4 °F 82% 30.07 in 10.0 mi West 5.8 mph - N/A Rain Light Rain
5:55 PM 59.0 °F 53.6 °F 82% 30.08 in 6.0 mi WNW 5.8 mph - N/A Rain Light Rain
6:15 PM 59.0 °F 53.6 °F 82% 30.06 in 5.0 mi North 8.1 mph - N/A Rain Light Rain
6:35 PM 59.0 °F 55.4 °F 88% 30.05 in 6.0 mi NNE 5.8 mph - 0.01 in Rain Light Rain
6:55 PM 59.0 °F 55.4 °F 88% 30.05 in 10.0 mi NNE 3.5 mph - 0.01 in   Partly Cloudy
7:15 PM 59.0 °F 55.4 °F 88% 30.05 in 10.0 mi Calm Calm - N/A   Clear
7:35 PM 59.0 °F 55.4 °F 88% 30.05 in 10.0 mi NW 5.8 mph - N/A   Mostly Cloudy
7:55 PM 59.0 °F 55.4 °F 88% 30.04 in 10.0 mi Calm Calm - N/A   Scattered Clouds
8:15 PM 59.0 °F 55.4 °F 88% 30.05 in 10.0 mi Calm Calm - N/A   Clear
8:35 PM 57.2 °F 55.4 °F 94% 30.05 in 10.0 mi Calm Calm - N/A   Partly Cloudy
8:55 PM 55.4 °F 55.4 °F 100% 30.05 in 10.0 mi Calm Calm - N/A   Clear
9:15 PM 55.4 °F 55.4 °F 100% 30.05 in 10.0 mi SW 3.5 mph - N/A   Partly Cloudy
9:35 PM 53.6 °F 53.6 °F 100% 30.05 in 5.0 mi Calm Calm - N/A   Partly Cloudy
9:55 PM 51.8 °F 51.8 °F 100% 30.06 in 7.0 mi South 3.5 mph - N/A   Partly Cloudy
10:15 PM 53.6 °F 53.6 °F 100% 30.06 in 9.0 mi Calm Calm - N/A   Clear
10:35 PM 53.6 °F 53.6 °F 100% 30.07 in 1.0 mi Calm Calm - N/A   Clear
11:15 PM 50.0 °F 50.0 °F 100% 30.08 in 5.0 mi ENE 3.5 mph - N/A   Clear
11:35 PM 50.0 °F 50.0 °F 100% 30.07 in 6.0 mi Calm Calm - N/A   Clear
11:55 PM 50.0 °F 50.0 °F 100% 30.07 in 2.5 mi Calm Calm - N/A   Partly Cloudy